Regional Weather Roundup
Issued by NWS

Home | Current Version | Previous Version | Graphics & Text | Print | Product List | Glossary On
Versions: 1 2 3 4 5 6 7 8 9 10 11 12 13 14 15 16 17 18 19 20 21 22 23 24 25 26 27 28 29 30 31 32 33 34 35 36 37 38 39 40 41 42 43 44 45 46 47 48 49 50
000
ASUS43 KMKX 211121
RWRWI

WISCONSIN REGIONAL WEATHER ROUNDUP
NATIONAL WEATHER SERVICE MILWAUKEE/SULLIVAN WI
600 AM CDT SUN SEP 21 2014

NOTE: "FAIR" INDICATES FEW OR NO CLOUDS BELOW 12,000 FEET WITH NO
SIGNIFICANT WEATHER AND/OR OBSTRUCTIONS TO VISIBILITY.

WIZ001-002-006>008-014>016-023>028-211200-
NORTHWEST WISCONSIN

CITY           SKY/WX    TMP DP  RH WIND       PRES   REMARKS
SUPERIOR ARPT  MOCLDY    50  49  97 CALM      29.94R
ASHLAND        CLOUDY    50  47  89 N9        29.91R
HAYWARD        LGT RAIN  50  49  96 N9G18     29.89R
SIREN          CLOUDY    52  50  94 N9        29.93R
RICE LAKE      CLOUDY    52  50  92 NW9G16    29.88R
LADYSMITH      LGT RAIN  54  52  95 N13G22    29.85R
EAU CLAIRE     CLOUDY    53  49  86 NW12      29.85R
MENOMONIE      CLOUDY    54  49  81 NW16G24   29.87R
NEW RICHMOND   LGT RAIN  51  50  97 NW10G20   29.93R
OSCEOLA        RAIN      52  52 100 NW9G20    29.96R
$$

WIZ003>005-009-010-017-018-211200-
NORTH CENTRAL WISCONSIN

CITY           SKY/WX    TMP DP  RH WIND       PRES   REMARKS
WOODRUFF       LGT RAIN  52  50  92 N15G22    29.80R
RHINELANDER    LGT RAIN  51  50  96 N5        29.78R
EAGLE RIVER    RAIN      51  50  98 N12G18    29.79R
LAND O LAKES   LGT RAIN  50  49  95 N9        29.81R
PHILLIPS       DRIZZLE   52  51  97 N7G17     29.80R
TOMAHAWK       RAIN      52  50  95 NW6       29.79R
MEDFORD        DRIZZLE   52  51  96 NW8       29.78R
MERRILL        LGT RAIN  52  52  99 N7        29.76R
$$

WIZ029-030-035-036-043>047-211200-
CENTRAL WISCONSIN

CITY           SKY/WX    TMP DP  RH WIND       PRES   REMARKS
WAUSAU         LGT RAIN  53  52  96 NW9       29.74R
MOSINEE        LGT RAIN  52  52 100 NW9       29.75R
MARSHFIELD     LGT RAIN  53  51  93 NW9       29.78R FOG
STEVENS POINT  LGT RAIN  50  49  97 NW6       29.75R
WAUPACA        LGT RAIN  56  54  94 W12       29.72R
WAUTOMA        CLOUDY    54  52  94 NW14      29.74R FOG
WISC RAPIDS    LGT RAIN  53  51  93 NW10      29.79R
CAMP DOUGLAS   CLOUDY    54  52  94 NW16G24   29.80R
$$

WIZ011>013-019>022-031-037>040-048>050-211200-
NORTHEAST WISCONSIN

CITY           SKY/WX    TMP DP  RH WIND       PRES   REMARKS
ANTIGO         CLOUDY    51  50  96 N9        29.74R
STURGEON BAY   CLOUDY    55  52  88 N13       29.68R
GREEN BAY      HVY RAIN  55  54  96 N14       29.70R
MANITOWOC      LGT RAIN  57  54  89 W13       29.65R
APPLETON       CLOUDY    54  54 100 W15       29.70R
CLINTONVILLE   CLOUDY    55  54  94 NW7       29.70R
OSHKOSH        CLOUDY    55  52  89 W13G22    29.70R
$$

WIZ032>034-041-042-053>061-211200-
SOUTHWEST WISCONSIN

CITY           SKY/WX    TMP DP  RH WIND       PRES   REMARKS
LA CROSSE      MOCLDY    58  47  66 NW22G29   29.85R
SPARTA         CLOUDY    55  46  70 W14G23    29.83R
VIROQUA        CLOUDY    53  48  83 NW14G22   29.84R
BOSCOBEL       PTCLDY    57  49  74 W9        29.84R
PRAIRIE DU CHI PTCLDY    56  50  78 W12G18    29.86R
PLATTEVILLE    FAIR      55  52  92 W13       29.85R
$$

WIZ056-057-062-063-064-067-068-211200-
SOUTH CENTRAL WISCONSIN

CITY           SKY/WX    TMP DP  RH WIND       PRES   REMARKS
BARABOO/DELLS  CLOUDY    55  47  74 W8G21     29.77R
LONE ROCK      MOCLDY    60  49  66 W14G22    29.81R
WATERTOWN      CLOUDY    55  53  92 W10       29.74S
MADISON        CLOUDY    56  50  80 W12G17    29.76S
MIDDLETON      PTSUNNY   56  52  85 W16G23    29.78R
MONROE         PTCLDY    54  50  87 W16G25    29.80S
JANESVILLE     CLEAR     55  52  88 W12       29.78S
$$

WIZ051-052-058>065-066-070>072-211200-
SOUTHEAST WISCONSIN

CITY           SKY/WX    TMP DP  RH WIND       PRES   REMARKS
MILWAUKEE      PTCLDY    57  50  77 W13G23    29.72S
WAUKESHA       MOCLDY    54  50  87 W17G23    29.74R
MILWAUKEE/TIMM MOCLDY    55  48  76 W18G24    29.72S
RACINE         PTCLDY    56  51  84 W10G20    29.75R
BURLINGTON     MOCLDY    54  50  88 W10G16    29.75S
KENOSHA        CLEAR     56  51  84 W13G21    29.75R
FOND DU LAC    CLOUDY    55  50  83 W13G20    29.71R
SHEBOYGAN      CLOUDY    56  51  84 W17G23    29.67S
WEST BEND      CLOUDY    55  48  76 W13G22    29.70S
JUNEAU         CLOUDY    55  50  83 W9G16     29.74R
$$

LSZ147-162-211200-
LAKE SUPERIOR

STATION/POSITION TIME  TEMP    WIND        PRES    WAVE
                       AIR SEA DIR/SP/G            HT/PER
                 (UTC) (F)     (DEG/KT/KT) (MB)    (FT/S)
W MID LAKE BUOY  1050   48 46   20/ 12/ 14 1011.6R   2/ 4
DEVILS ISLAND    1100   51      50/ 14/ 15 1012.9R
PORT WING        1040   52      40/ 13/ 16 1013.2R
SAXON HARBOR     1000   54      40/ 18/ 23 1010.8R
$$

LMZ867-665-643>646-211200-
LAKE MICHIGAN

STATION/POSITION TIME  TEMP    WIND        PRES    WAVE
                       AIR SEA DIR/SP/G            HT/PER
                 (UTC) (F)     (DEG/KT/KT) (MB)    (FT/S)
N MID LAKE BUOY  1050   56 58  350/ 19/ 23 1002.6R   2/ 4
NORTHPORT PIER   1104   56     340/ 21/ 25 1004.1R
SISTER BAY       1012           30/ 10/ 14   N/A
KEWAUNEE LAKESHO 1100   55     320/  3/  5 1003.5R
SHEBOYGAN LAKESH 1100   57 53  270/ 14/ 19 1004.7S
PORT WASHINGTON  1000   58     280/  9/ 16 1006.1R
ATWATER BUOY     1100   57     260/ 16/ 19 1007.3F
MILWAUKEE LAKESH 1100   58     270/ 12/ 17   N/A
S MID LAKE BUOY  1050   60 63  270/ 25/ 29 1005.8R   5/ 5
KENOSHA   LAKESH 1100   58     270/ 11/ 19 1007.1S
$$

TC  - TEMPERATURE IN CELSIUS
VSB - VISIBILITY IN STATUTE MILES
WCI - WIND CHILL INDEX
HX  - HEAT INDEX



USA.gov is the U.S. government's official web portal to all federal, state and local government web resources and services.